EW0538 Weather Reports


time (UTC)temp
F
wind
direction
speed
knots
gust
knots
rain 1hr
in
rain 24hr
in
rain mn
in
humidity
%
barometer
mb
20260510224459 75 44 2.6 10.4 0.00 0.00 0.00 14 1013.5
20260510223441 75 30 2.6 9.6 0.00 0.00 0.00 16 1013.6
20260510221340 75 359 2.6 9.6 0.00 0.00 0.00 14 1013.8
20260510215235 75 124 0.9 6.1 0.00 0.00 0.00 13 1013.9
20260510214249 75 222 0.9 6.1 0.00 0.00 0.00 14 1014.0
20260510213244 75 351 1.7 7.8 0.00 0.00 0.00 14 1014.1
20260510212225 75 257 0.9 7.8 0.00 0.00 0.00 13 1014.2
20260510210029 74 233 0.9 8.7 0.00 0.00 0.00 12 1014.4
20260510205041 74 337 1.7 8.7 0.00 0.00 0.00 12 1014.6
20260510204040 76 246 0.0 3.5 0.00 0.00 0.00 12 1014.7
20260510203052 73 138 0.9 6.1 0.00 0.00 0.00 11 1014.7
20260510202034 74 312 0.0 3.5 0.00 0.00 0.00 9 1014.7
20260510201053 75 30 0.0 1.7 0.00 0.00 0.00 12 1014.9
20260510194929 71 150 0.0 2.6 0.00 0.00 0.00 14 1015.1
20260510193856 71 87 0.0 1.7 0.00 0.00 0.00 16 1015.3
20260510192836 68 190 0.9 2.6 0.00 0.00 0.00 5 1015.4
20260510191841 68 293 0.0 3.5 0.00 0.00 0.00 8 1015.5
20260510190834 68 207 0.9 1.7 0.00 0.00 0.00 7 1015.6
20260510185858 67 186 0.9 3.5 0.00 0.00 0.00 10 1015.6
20260510182615 66 195 0.0 1.7 0.00 0.00 0.00 9 1016.0
20260510181547 66 160 0.0 1.7 0.00 0.00 0.00 11 1016.2
20260510175413 64 203 0.0 4.3 0.00 0.00 0.00 11 1016.3
20260510172131 63 304 0.0 0.0 0.00 0.00 0.00 14 1016.8
20260510171057 64 117 0.0 0.9 0.00 0.00 0.00 14 1016.9
20260510170034 62 198 0.0 0.0 0.00 0.00 0.00 19 1016.9
20260510163839 61 195 0.0 1.7 0.00 0.00 0.00 21 1017.0
20260510162817 59 296 0.0 0.9 0.00 0.00 0.00 22 1017.1
20260510161749 59 195 0.0 2.6 0.00 0.00 0.00 24 1017.3
20260510160722 59 224 0.0 1.7 0.00 0.00 0.00 28 1017.3
20260510154626 57 196 0.0 2.6 0.00 0.00 0.00 30 1017.8
20260510153620 57 134 0.0 0.0 0.00 0.00 0.00 28 1017.9
20260510152620 56 309 0.0 0.0 0.00 0.00 0.00 32 1018.0
20260510151621 54 311 0.0 0.0 0.00 0.00 0.00 34 1018.1
20260510150557 54 207 0.0 0.0 0.00 0.00 0.00 35 1018.2
20260510145604 53 220 0.0 0.9 0.00 0.00 0.00 33 1018.3
20260510144542 52 223 0.0 0.0 0.00 0.00 0.00 34 1018.4
20260510143603 51 179 0.0 2.6 0.00 0.00 0.00 34 1018.4
20260510142556 50 174 0.0 2.6 0.00 0.00 0.00 36 1018.5
20260510141549 50 328 0.0 0.9 0.00 0.00 0.00 38 1018.5
20260510140613 47 328 0.0 0.0 0.00 0.00 0.00 42 1018.6
20260510135542 45 31 0.0 0.0 0.00 0.00 0.00 44 1018.7
20260510134538 42 30 0.0 0.0 0.00 0.00 0.00 49 1018.6
20260510132426 38 30 0.0 0.0 0.00 0.00 0.00 61 1018.3
20260510131413 37 30 0.0 0.0 0.00 0.00 0.00 62 1018.1
20260510130405 36 30 0.0 0.0 0.00 0.00 0.00 64 1018.0
20260510125336 35 30 0.0 0.0 0.00 0.00 0.00 64 1017.8
20260510124338 34 30 0.0 0.0 0.00 0.00 0.00 64 1017.5
20260510122217 33 30 0.0 0.0 0.00 0.00 0.00 64 1017.0
20260510121241 33 30 0.0 0.0 0.00 0.00 0.00 61 1016.8
20260510120225 33 30 0.0 0.0 0.00 0.00 0.00 61 1016.6
20260510114106 33 30 0.0 0.0 0.00 0.00 0.00 61 1016.1
20260510091205 39 30 0.0 0.0 0.00 0.00 0.00 50 1015.7
20260510084904 39 30 0.0 0.0 0.00 0.00 0.00 49 1015.4
20260510083920 40 30 0.0 0.0 0.00 0.00 0.00 48 1015.2
20260510080644 42 29 0.0 1.7 0.00 0.00 0.00 45 1015.1
20260510075615 43 27 0.0 0.0 0.00 0.00 0.00 43 1015.0
20260510074640 45 189 0.0 1.7 0.00 0.00 0.00 41 1015.0
20260510072541 44 49 0.9 2.6 0.00 0.00 0.00 37 1014.7
20260510070444 42 27 0.0 0.0 0.00 0.00 0.00 44 1014.5
20260510065409 42 75 0.0 0.0 0.00 0.00 0.00 42 1014.3
20260510064359 42 52 0.0 0.0 0.00 0.00 0.00 43 1014.2
20260510063354 43 52 0.0 0.0 0.00 0.00 0.00 41 1013.9
20260510062358 43 52 0.0 0.0 0.00 0.00 0.00 40 1013.8
20260510061419 44 51 0.0 0.0 0.00 0.00 0.00 39 1013.5
20260510060349 44 210 0.0 0.0 0.00 0.00 0.00 37 1013.2
20260510055402 44 32 0.0 0.0 0.00 0.00 0.00 36 1012.9
20260510054335 45 32 0.0 0.0 0.00 0.00 0.00 36 1012.6
20260510053359 45 342 0.0 0.0 0.00 0.00 0.00 39 1012.2
20260510052408 45 30 0.0 0.0 0.00 0.00 0.00 37 1012.0
20260510050223 46 86 0.0 0.0 0.00 0.00 0.00 35 1011.7
20260510045203 47 86 0.0 0.0 0.00 0.00 0.00 32 1011.5
20260510044214 48 85 0.0 0.0 0.00 0.00 0.00 27 1011.2
20260510043238 48 86 0.0 0.0 0.00 0.00 0.00 31 1011.0
20260510042237 47 103 0.0 0.0 0.00 0.00 0.00 32 1010.5
20260510041220 48 179 0.0 0.0 0.00 0.00 0.00 34 1010.3
20260510040243 49 179 0.0 0.0 0.00 0.00 0.00 29 1009.7
20260510035230 49 180 0.0 0.0 0.00 0.00 0.00 30 1009.6
20260510034239 50 180 0.0 0.0 0.00 0.00 0.00 34 1009.4
20260510033217 51 34 0.0 0.0 0.00 0.00 0.00 27 1008.9
20260510032235 53 34 0.0 0.0 0.00 0.00 0.00 18 1008.8
20260510031246 53 34 0.0 0.9 0.00 0.00 0.00 16 1008.6
20260510030212 55 88 0.0 0.0 0.00 0.00 0.00 14 1008.3
20260510024003 58 89 0.0 0.9 0.00 0.00 0.00 11 1007.7
20260510023016 60 66 0.0 0.0 0.00 0.00 0.00 11 1007.7
20260510021951 61 20 0.0 0.0 0.00 0.00 0.00 10 1007.7
20260510021014 62 129 0.0 0.0 0.00 0.00 0.00 11 1007.7
20260510015944 64 196 0.0 0.0 0.00 0.00 0.00 9 1007.5
20260510014943 66 199 0.0 0.0 0.00 0.00 0.00 7 1007.5
20260510013937 67 172 0.0 0.0 0.00 0.00 0.00 2 1007.3
20260510012939 68 90 0.0 0.0 0.00 0.00 0.00 3 1007.2
20260510011955 68 89 0.0 0.0 0.00 0.00 0.00 5 1007.0
20260510011003 69 88 0.0 1.7 0.00 0.00 0.00 5 1006.8
20260510004821 70 196 0.0 0.0 0.00 0.00 0.00 7 1006.6
20260510003823 70 219 0.0 4.3 0.00 0.00 0.00 6 1006.6
20260510002833 70 168 0.0 0.0 0.00 0.00 0.00 7 1006.3
20260510001852 70 167 0.0 0.9 0.00 0.00 0.00 8 1006.3
20260510000908 70 214 0.0 3.5 0.00 0.00 0.00 8 1006.2
20260509235859 71 191 0.0 0.0 0.00 0.00 0.00 10 1006.2
20260509234914 71 188 0.9 3.5 0.00 0.00 0.00 7 1006.2
20260509233931 71 186 0.9 4.3 0.00 0.00 0.00 9 1006.1
20260509232942 71 214 0.9 3.5 0.00 0.00 0.00 9 1006.1
20260509231919 71 193 0.0 5.2 0.00 0.00 0.00 9 1006.3
20260509230925 71 160 1.7 5.2 0.00 0.00 0.00 7 1006.3
20260509225929 71 155 1.7 4.3 0.00 0.00 0.00 8 1006.3
20260509224909 71 200 0.9 3.5 0.00 0.00 0.00 9 1006.4